Find Starlink 6343

NORAD ID: 57362 Int'l Des: 2023-099 Owner: SPXS Country: US Constellation: starlink operational
LEOCIRCULAR

リアルタイム位置

3D地球を読み込み中...

Starlink 6343について

説明を読み込み中...

次回通過

Passes for default location (London). Set your location on the main map for personalized predictions.

高度履歴

Loading altitude history...

軌道要素

1 57362U 23099AL 26105.83363168 .00000461 00000-0 26843-4 0 9996
2 57362 43.0020 31.5926 0000774 260.5234 99.5530 15.26742128151871
Epoch: Apr 15, 2026 • Age: 6 hours

現在のステータス

高度 498.2 km
速度 7.62 km/s
衛星直下点 -42.57°S, 78.63°E
打ち上げ日 Jul 16, 2023
運用期間 2.7 years
タイプ internet

技術仕様

分類 Payload
質量 305.00 kg
乾燥質量 290.00 kg
総質量 305.00 kg
長さ 0.20 m
直径 2.80 m
スパン 9.00 m
形状 Box + pan
製造者 SPXS
バスタイプ Starlink
フェーズステータス In Orbit
所有者/国 SPXS/US

Most Searched